Temperature
24 22 23 23 23 24 24 24 24 24 24 23 23 22 22 22 21 21 21 21 21 21 21 21 21 21 20 20 20 20 20 19 19 19 19 19 19 19 18 18 18 18 18 18
23 23 24 24 24 24 24 24 24 24 24 24 22 22 22 21 21 22 21 21 21 21 21 21 21 21 20 20 20 20 20 20 19 19 19 19 19 19 18 18 18 18 18 18
24 24 25 25 25 24 24 24 24 24 24 23 23 23 22 21 22 22 22 22 21 22 22 21 21 21 21 20 20 20 20 20 19 19 19 19 19 19 18 18 18 18 18 18
24 24 25 25 25 25 24 24 24 24 23 22 23 21 22 21 21 21 21 22 21 22 22 22 21 21 21 21 20 20 20 20 20 19 19 19 19 19 19 19 18 18 18 18
24 25 25 25 25 25 24 24 24 24 22 21 22 21 21 20 21 21 21 22 22 22 22 22 22 22 21 21 21 21 20 20 20 20 19 19 19 19 19 19 19 18 18 18
24 25 25 25 26 25 25 23 22 20 20 21 21 21 21 20 21 21 21 22 22 22 22 22 22 22 22 21 21 21 20 20 20 20 19 19 19 19 19 19 19 18 18 18
24 25 25 26 25 25 24 22 21 21 20 20 21 21 21 22 21 22 22 22 22 22 22 22 22 22 22 21 21 21 21 20 20 20 20 19 19 19 19 19 19 18 18 18
23 23 25 25 25 24 23 22 21 22 21 20 21 21 22 22 22 23 23 23 23 23 22 22 22 22 22 22 22 21 21 21 20 20 20 20 19 19 19 19 18 18 18 18
22 23 24 25 25 24 23 21 21 19 20 21 20 20 21 22 21 22 22 22 22 23 23 23 23 23 22 22 22 21 21 21 20 20 20 20 19 19 19 19 18 18 18 18
22 23 24 24 24 23 22 20 18 19 20 21 21 21 21 22 21 21 20 21 22 22 23 23 23 23 23 22 22 22 21 21 21 20 20 20 19 19 19 19 18 18 18 18
21 22 23 23 24 23 22 21 18 17 19 20 21 21 22 21 21 20 20 21 22 23 23 23 23 23 23 23 22 22 21 21 21 20 20 20 20 19 19 19 18 18 18 18
19 19 20 22 22 23 22 21 19 20 19 18 19 21 22 21 20 20 21 22 22 23 23 23 23 23 23 23 22 22 22 21 21 21 20 20 19 19 19 19 18 18 18 18
20 19 20 21 22 22 22 21 19 18 17 17 19 21 21 20 20 21 21 22 22 23 23 23 23 23 23 23 22 22 22 21 21 21 20 20 19 19 19 19 18 18 18 18
19 18 20 21 21 21 22 21 19 19 18 18 19 21 21 20 20 20 20 21 22 22 22 22 22 22 22 22 22 22 22 21 21 21 20 20 20 19 19 19 18 18 18 18
19 19 19 20 21 21 21 22 21 20 19 20 20 20 21 20 20 20 20 21 21 22 22 22 22 22 22 22 22 21 21 21 21 20 20 20 20 19 19 18 18 18 18 17
16 18 19 20 21 21 21 21 21 21 21 20 20 20 20 20 20 20 20 20 20 21 22 22 22 22 22 22 22 21 21 21 21 20 20 20 19 19 19 18 18 18 18 17
15 17 18 19 20 21 20 20 21 21 20 20 20 20 19 19 19 19 20 20 21 21 22 22 22 22 22 22 22 21 21 21 20 20 20 19 19 19 19 18 18 18 17 17
15 15 15 16 19 20 20 20 21 20 20 19 19 19 19 19 20 20 21 20 21 21 22 22 22 22 22 21 21 21 21 20 20 20 20 19 19 19 18 18 18 18 17 17
14 15 15 15 17 19 20 20 20 20 20 19 19 18 19 19 19 19 20 21 21 21 21 22 22 21 21 21 21 20 20 20 19 19 19 19 18 18 18 17 17 17 17 17
13 14 15 15 18 18 19 20 20 20 19 19 18 18 18 18 18 18 20 20 20 20 21 21 21 21 21 20 20 20 19 19 19 18 18 18 18 18 18 17 17 17 17 16
15 14 15 15 17 17 18 18 20 20 19 19 19 18 18 18 19 20 20 20 20 20 20 20 20 20 20 20 19 19 19 18 18 18 18 18 18 17 17 17 17 17 17 16
14 14 14 14 16 17 17 17 18 18 19 19 19 19 19 19 19 19 19 19 19 19 19 19 19 19 19 19 19 18 18 18 18 18 18 18 17 17 17 17 16 16 16 16
13 14 13 14 15 16 17 17 18 19 18 19 19 19 19 18 18 18 18 18 18 18 18 18 18 18 18 18 18 18 18 17 17 17 17 17 17 17 16 16 16 16 16 15
13 12 12 13 14 15 16 17 18 19 19 19 19 19 19 18 18 18 18 18 18 18 17 17 17 17 17 17 17 17 17 17 17 17 17 16 16 16 16 15 15 15 15 15
13 13 13 13 14 15 16 17 18 18 18 18 19 18 18 18 17 18 18 17 17 17 17 17 16 16 16 16 16 16 16 16 16 16 16 16 15 15 15 15 15 15 15 15
11 12 13 13 14 14 15 17 17 18 18 18 18 18 17 18 17 17 17 17 16 16 16 16 16 16 16 16 16 16 16 16 16 16 15 15 15 15 15 14 14 14 14 14
Wind_Speed
3 4 4 7 8 6 5 3 3 4 2 4 4 4 5 8 8 9 9 9 10 11 8 7 7 7 6 5 5 5 5 4 4 2 2 2 1 1 0 1 1 2 2 3
4 4 8 5 5 3 4 3 3 3 0 3 2 4 4 8 11 11 12 11 12 9 7 8 7 7 7 7 6 6 5 5 5 4 3 2 2 1 1 0 0 1 2 3
8 6 4 5 3 3 4 6 5 3 1 3 2 4 3 4 6 7 8 9 10 13 12 10 9 8 8 8 8 7 6 5 5 4 3 2 2 2 1 1 0 0 1 2
5 4 4 4 4 6 5 5 6 4 3 2 1 3 6 4 5 8 9 9 10 11 11 11 10 9 9 9 8 7 6 6 5 5 5 4 3 2 2 2 1 0 1 2
5 4 5 5 6 7 5 2 3 3 4 1 1 2 7 1 5 10 12 12 11 10 12 12 12 11 10 8 8 7 6 6 5 6 6 5 4 3 2 1 1 1 0 1
5 3 5 6 3 5 5 7 7 6 5 1 3 4 7 5 8 8 10 12 11 11 11 11 10 9 8 8 7 7 7 7 6 7 7 6 6 5 3 2 2 1 0 0
3 3 2 3 2 2 6 7 4 4 3 5 3 3 8 8 7 9 10 12 12 11 10 10 10 10 10 10 9 8 9 8 7 7 7 7 7 7 6 4 4 3 1 1
3 5 4 3 6 6 5 9 8 5 5 5 1 5 7 6 6 5 6 7 9 10 10 11 11 11 11 11 10 9 10 9 7 8 7 6 6 5 4 5 4 4 3 3
7 6 4 2 3 8 6 4 7 7 2 1 5 6 8 3 3 0 3 5 7 10 11 11 10 10 10 10 10 10 10 8 8 8 7 6 6 6 5 4 4 3 3 3
8 4 4 2 4 4 5 9 6 6 5 3 5 5 5 6 4 2 2 4 6 7 8 9 9 10 10 10 9 9 9 9 8 8 7 6 6 6 5 4 5 4 3 3
5 5 3 2 4 5 4 5 5 5 6 6 4 7 6 8 6 5 5 5 6 7 9 9 9 9 8 8 8 8 8 7 7 7 7 6 6 5 5 5 5 4 3 3
4 5 2 5 4 2 5 7 8 6 4 5 5 7 5 5 4 4 4 4 4 5 7 7 8 8 8 8 8 9 8 8 7 7 6 6 5 5 5 5 4 4 3 3
5 6 3 5 5 2 2 3 5 6 6 6 5 7 3 0 1 2 3 3 3 4 5 5 6 6 7 7 8 8 8 8 7 6 7 6 6 6 6 5 4 4 4 4
5 5 7 9 8 4 3 3 5 6 5 6 8 8 6 4 3 3 2 2 3 4 5 5 5 5 5 6 6 7 7 7 7 7 7 7 7 7 6 5 5 4 4 4
5 4 4 5 4 4 4 5 7 6 8 9 9 8 9 7 6 4 3 3 4 4 5 6 6 6 5 5 5 5 6 6 6 7 7 7 6 5 5 5 5 5 5 5
4 4 2 1 1 2 2 4 6 5 4 5 4 7 6 3 2 3 4 5 5 5 6 6 6 6 6 6 6 6 6 6 6 7 7 6 6 5 5 5 5 4 4 4
2 4 3 2 2 2 3 6 6 4 4 6 7 8 3 2 5 6 6 5 6 6 6 6 6 6 6 6 6 7 6 5 5 6 6 6 6 6 5 5 4 5 5 4
5 5 4 2 2 5 8 3 4 4 3 3 4 4 5 5 4 2 3 4 5 5 5 5 4 4 4 5 5 6 6 5 5 4 4 4 5 5 4 4 4 4 4 4
5 7 5 4 3 5 5 2 3 4 4 3 4 3 1 2 2 2 1 3 4 4 4 3 3 3 4 4 5 6 5 5 4 4 4 4 4 4 4 4 4 4 3 3
4 4 6 5 4 7 7 3 1 4 4 4 4 4 3 3 1 4 2 0 1 1 1 1 2 3 4 4 5 6 5 4 4 3 3 4 4 4 4 4 4 3 3 3
3 3 4 4 4 7 5 3 3 5 7 4 4 5 6 4 5 3 0 1 2 2 2 3 4 4 3 4 6 6 5 4 4 3 3 3 3 4 4 3 2 2 2 3
4 4 4 5 4 7 3 2 5 6 3 2 4 4 4 2 2 1 2 2 3 4 4 5 5 4 4 4 6 5 3 2 2 3 3 2 2 2 2 3 2 2 3 2
3 5 5 6 6 5 3 4 4 2 3 3 3 3 4 3 2 2 2 3 4 4 4 4 5 5 4 4 4 4 2 2 3 3 3 2 2 2 2 3 3 2 2 2
2 1 2 2 5 4 4 3 3 1 2 2 3 4 4 4 4 3 3 3 3 3 4 4 6 5 3 2 2 2 2 3 4 3 2 2 2 2 1 2 2 2 2 2
4 1 1 2 5 4 4 3 2 2 1 2 3 4 4 6 4 4 4 3 3 3 3 4 5 5 3 2 1 1 2 4 4 3 2 2 2 2 1 1 1 2 2 3
4 5 4 6 6 4 6 6 3 1 1 2 5 4 3 4 4 3 3 3 3 3 3 4 4 4 2 2 2 1 2 4 4 3 2 2 1 1 1 1 1 2 1 1
Wind_Direction
107 99 197 209 197 189 171 184 237 254 209 166 207 230 207 187 192 196 193 194 197 203 204 187 182 179 171 172 173 171 167 168 151 144 146 146 177 207 249 242 214 191 181 160
63 234 224 197 186 176 174 206 248 301 312 168 216 258 225 196 202 201 199 199 200 200 195 190 183 182 181 182 184 182 182 176 174 174 162 157 155 163 195 295 15 186 177 164
186 224 181 162 174 193 213 196 212 215 29 48 79 320 239 216 210 209 208 203 200 199 198 194 189 190 187 190 192 193 190 185 181 167 130 105 81 60 50 10 338 294 170 158
220 235 170 179 205 173 248 223 189 172 126 291 122 276 280 223 216 218 216 209 209 205 198 194 191 192 197 198 191 189 188 186 179 163 156 159 165 183 210 206 200 79 141 162
228 194 175 202 215 175 209 159 151 153 143 62 19 182 286 233 233 233 220 214 211 206 198 196 196 197 199 192 186 188 186 188 181 171 172 168 179 196 193 156 137 139 56 164
234 224 194 204 206 165 134 74 56 50 75 303 239 178 274 232 223 233 220 213 208 201 199 199 195 188 192 186 183 184 185 193 188 180 179 181 187 186 175 177 175 190 210 279
313 297 252 167 101 79 104 95 42 8 9 253 242 194 249 251 235 223 216 208 203 195 194 194 190 190 192 190 189 187 188 198 192 186 189 192 194 190 191 193 191 190 204 229
177 272 245 189 171 173 167 141 156 191 217 268 274 230 254 269 271 242 212 197 189 188 191 194 196 195 196 195 193 190 191 196 189 190 195 193 191 191 196 194 190 197 209 221
177 238 277 236 168 139 137 153 157 137 147 262 274 281 299 310 327 344 155 160 182 192 194 195 195 196 196 194 195 192 191 193 191 192 191 192 191 191 194 192 192 202 210 211
163 214 275 284 80 45 134 141 107 125 150 233 288 278 254 272 268 266 192 188 195 194 195 196 193 194 196 195 192 187 190 196 195 190 194 201 198 198 194 187 198 205 210 205
143 166 286 27 163 179 112 109 115 124 152 160 233 267 230 219 224 223 219 210 201 194 195 196 193 189 187 183 184 186 190 191 192 196 196 193 194 192 190 197 205 208 209 198
141 128 222 264 268 189 158 160 148 153 198 175 179 259 275 217 223 215 218 210 204 193 193 189 185 177 176 180 183 187 190 195 199 195 190 193 186 178 186 199 203 196 196 199
136 117 91 347 344 22 119 156 151 130 124 155 173 256 313 134 240 233 206 203 197 176 176 171 169 172 180 188 189 190 191 194 192 183 185 186 184 183 192 199 201 195 195 202
125 121 163 194 214 198 197 188 164 136 153 189 212 240 283 276 257 252 216 190 176 173 171 171 177 185 186 189 188 187 190 188 184 179 183 190 193 194 197 196 195 197 197 197
110 146 195 223 219 179 193 199 183 182 184 187 220 224 247 243 233 224 200 179 167 172 175 181 186 193 193 187 186 183 182 178 178 177 187 197 194 189 188 189 193 198 199 203
72 139 148 275 255 172 210 230 203 201 190 198 218 252 253 252 196 187 196 185 188 197 196 192 187 184 190 193 191 184 180 172 168 177 189 186 176 180 188 188 189 193 198 201
101 126 122 238 291 55 250 224 195 185 191 177 207 235 241 227 212 209 205 202 206 208 205 198 194 191 191 190 180 178 176 164 167 181 184 177 174 182 190 184 181 194 202 201
150 127 131 142 86 212 238 237 179 175 209 208 214 230 210 216 219 209 196 205 215 214 210 202 192 190 187 174 166 160 152 154 164 174 174 170 168 178 179 174 186 196 198 199
164 141 129 134 177 255 285 245 166 177 244 235 216 224 178 125 61 340 273 204 208 217 218 211 196 177 157 150 145 137 140 144 154 171 176 176 169 166 168 182 195 192 187 199
81 104 123 135 161 220 239 260 224 128 257 252 202 192 172 115 148 260 277 208 181 151 130 132 129 126 129 127 129 129 133 136 160 179 180 169 162 164 178 191 192 188 187 202
73 73 131 158 196 249 257 294 98 160 235 244 201 189 179 191 213 222 167 64 77 88 102 105 107 112 122 118 124 130 137 166 184 170 160 156 162 170 176 178 174 169 181 192
166 151 172 152 180 243 276 102 173 217 261 227 202 186 180 191 173 141 121 105 91 85 86 100 104 98 98 111 122 132 158 184 152 133 136 144 150 153 153 147 147 152 156 165
195 190 184 188 209 247 256 227 245 219 220 230 196 174 157 148 151 129 106 102 99 102 99 98 110 102 95 106 122 144 174 149 128 123 132 140 131 129 140 153 163 165 166 178
278 149 146 261 272 277 285 299 317 304 240 227 162 146 140 140 139 126 119 107 101 98 108 102 107 109 98 100 139 162 150 131 128 130 131 123 122 126 137 154 168 176 189 199
242 188 155 263 282 318 306 287 298 335 27 100 105 116 133 127 129 131 125 116 111 104 103 107 116 119 116 110 112 101 121 126 123 124 123 119 131 147 159 160 177 195 216 213
217 193 188 231 235 223 264 279 287 293 73 126 114 97 95 124 133 120 120 121 118 114 106 105 96 94 95 85 65 72 125 129 124 119 120 126 136 148 153 150 39 24 257 262
Height
1491 1497 1503 1501 1499 1500 1504 1509 1512 1507 1500 1504 1507 1507 1505 1505 1508 1509 1511 1513 1514 1515 1518 1521 1523 1526 1527 1529 1530 1532 1533 1535 1536 1537 1538 1539 1540 1541 1541 1542 1542 1542 1543 1543
1496 1499 1493 1492 1495 1498 1503 1509 1510 1505 1500 1503 1508 1507 1504 1504 1504 1505 1507 1509 1511 1514 1517 1520 1522 1525 1526 1528 1530 1531 1533 1534 1536 1537 1538 1539 1540 1540 1541 1542 1542 1542 1543 1543
1495 1492 1488 1491 1496 1500 1502 1506 1507 1507 1503 1504 1508 1511 1506 1503 1503 1505 1506 1507 1509 1510 1513 1516 1519 1522 1525 1526 1528 1530 1532 1534 1536 1537 1538 1539 1539 1540 1540 1541 1541 1542 1543 1543
1490 1486 1488 1491 1494 1496 1505 1496 1498 1503 1512 1519 1513 1528 1510 1504 1503 1502 1502 1504 1505 1507 1510 1513 1516 1520 1522 1525 1527 1529 1531 1533 1534 1536 1537 1538 1538 1539 1539 1540 1541 1542 1542 1543
1489 1485 1487 1491 1490 1491 1496 1492 1497 1502 1512 1520 1518 1526 1517 1505 1505 1499 1497 1499 1501 1504 1507 1510 1513 1516 1520 1523 1525 1527 1530 1532 1533 1534 1535 1537 1537 1538 1539 1540 1540 1541 1542 1542
1483 1481 1482 1483 1483 1486 1490 1497 1504 1511 1519 1532 1522 1527 1521 1507 1498 1493 1492 1494 1496 1500 1504 1507 1511 1514 1517 1520 1523 1525 1527 1529 1531 1532 1534 1535 1536 1537 1538 1539 1539 1540 1541 1541
1488 1483 1480 1480 1486 1488 1492 1511 1531 1533 1541 1536 1520 1522 1515 1493 1488 1486 1486 1489 1492 1496 1500 1504 1507 1510 1514 1517 1519 1522 1525 1526 1528 1530 1531 1532 1534 1535 1536 1537 1538 1539 1539 1540
1499 1499 1482 1478 1483 1490 1495 1504 1529 1541 1543 1535 1522 1521 1502 1486 1483 1482 1483 1486 1489 1493 1496 1500 1503 1506 1510 1513 1516 1519 1521 1524 1526 1527 1529 1530 1532 1533 1534 1535 1536 1537 1538 1538
1499 1497 1478 1475 1476 1482 1495 1504 1505 1524 1530 1534 1527 1514 1496 1484 1482 1482 1483 1485 1487 1490 1493 1496 1500 1503 1507 1510 1513 1516 1518 1521 1523 1525 1527 1528 1530 1531 1532 1533 1534 1535 1536 1536
1484 1493 1481 1477 1477 1481 1486 1496 1512 1524 1537 1539 1527 1518 1508 1490 1486 1483 1483 1483 1485 1488 1491 1494 1497 1500 1504 1507 1510 1513 1516 1518 1520 1522 1524 1526 1527 1529 1530 1531 1532 1533 1533 1534
1479 1490 1488 1482 1484 1488 1492 1499 1508 1520 1523 1535 1537 1520 1488 1485 1482 1482 1481 1482 1483 1486 1488 1491 1494 1498 1501 1504 1507 1509 1512 1515 1517 1519 1521 1523 1524 1526 1527 1528 1529 1530 1531 1532
1480 1491 1498 1489 1480 1478 1483 1491 1502 1514 1521 1525 1527 1514 1479 1479 1479 1479 1480 1480 1482 1484 1486 1489 1492 1495 1498 1500 1503 1506 1509 1511 1514 1516 1518 1520 1521 1523 1524 1525 1527 1528 1528 1529
1478 1491 1504 1501 1495 1485 1486 1488 1494 1502 1515 1525 1525 1508 1478 1478 1478 1478 1479 1479 1481 1483 1485 1488 1490 1493 1495 1498 1500 1503 1506 1508 1511 1513 1515 1517 1518 1520 1521 1522 1524 1524 1525 1526
1472 1488 1496 1503 1497 1488 1488 1488 1491 1497 1511 1517 1511 1498 1482 1479 1478 1478 1478 1478 1480 1481 1483 1486 1488 1490 1492 1495 1498 1500 1503 1505 1508 1510 1512 1513 1515 1516 1518 1519 1521 1522 1522 1523
1472 1485 1485 1484 1481 1481 1483 1483 1485 1489 1493 1500 1495 1492 1481 1477 1476 1476 1476 1477 1479 1480 1482 1483 1485 1487 1490 1492 1495 1498 1501 1503 1505 1507 1509 1510 1512 1514 1515 1516 1517 1519 1520 1520
1475 1483 1484 1484 1480 1480 1482 1480 1480 1482 1484 1486 1486 1485 1475 1474 1474 1475 1475 1476 1477 1478 1479 1481 1483 1485 1487 1490 1492 1495 1498 1500 1502 1503 1505 1507 1509 1511 1512 1513 1514 1515 1516 1517
1480 1484 1490 1493 1484 1482 1489 1480 1479 1480 1478 1480 1484 1479 1473 1473 1473 1472 1473 1474 1475 1476 1477 1479 1480 1482 1485 1487 1490 1492 1495 1497 1499 1501 1503 1504 1506 1507 1509 1509 1511 1512 1513 1514
1479 1485 1493 1497 1492 1500 1483 1470 1471 1474 1474 1473 1472 1471 1470 1470 1470 1471 1472 1473 1474 1475 1476 1477 1479 1481 1483 1485 1487 1490 1492 1494 1497 1499 1500 1502 1503 1504 1505 1506 1507 1508 1510 1511
1473 1481 1493 1500 1500 1492 1478 1470 1470 1474 1475 1470 1470 1469 1469 1469 1470 1470 1471 1472 1472 1474 1475 1476 1478 1479 1481 1483 1485 1487 1489 1492 1494 1496 1497 1499 1500 1502 1503 1504 1504 1505 1507 1508
1474 1476 1488 1496 1497 1497 1479 1467 1465 1470 1477 1467 1467 1467 1468 1468 1473 1470 1469 1470 1471 1472 1473 1474 1476 1478 1479 1481 1483 1485 1487 1490 1492 1494 1495 1497 1498 1499 1500 1501 1502 1503 1505 1505
1481 1484 1488 1492 1492 1484 1469 1465 1465 1480 1475 1464 1464 1464 1465 1466 1467 1467 1467 1468 1469 1470 1471 1472 1474 1476 1478 1480 1482 1484 1486 1488 1490 1492 1493 1495 1496 1497 1498 1499 1500 1501 1502 1503
1481 1485 1488 1490 1491 1486 1466 1465 1468 1467 1462 1461 1462 1462 1463 1464 1464 1465 1466 1467 1468 1468 1469 1471 1472 1474 1476 1479 1481 1483 1485 1487 1489 1490 1492 1493 1494 1495 1496 1497 1498 1499 1500 1500
1477 1477 1478 1479 1477 1467 1464 1463 1462 1461 1460 1460 1460 1461 1462 1463 1463 1464 1465 1466 1468 1468 1469 1471 1472 1473 1475 1477 1480 1482 1484 1486 1487 1488 1489 1490 1491 1493 1494 1495 1496 1497 1497 1497
1473 1472 1473 1473 1468 1464 1463 1461 1460 1460 1460 1459 1459 1460 1461 1461 1462 1463 1465 1466 1467 1468 1469 1470 1471 1473 1475 1477 1479 1482 1483 1484 1485 1486 1487 1488 1489 1491 1492 1493 1494 1494 1495 1495
1472 1471 1472 1472 1467 1463 1461 1461 1460 1460 1459 1459 1459 1460 1460 1461 1462 1463 1464 1466 1467 1468 1469 1471 1471 1473 1475 1477 1479 1481 1482 1483 1483 1484 1485 1487 1488 1489 1490 1491 1492 1493 1493 1494
1468 1469 1470 1469 1464 1464 1461 1460 1460 1460 1459 1459 1459 1460 1461 1462 1462 1463 1464 1465 1467 1468 1469 1470 1471 1473 1475 1476 1478 1479 1481 1482 1482 1483 1484 1485 1486 1488 1489 1489 1490 1491 1492 1492